This demonstration page uses our WeatherBlox Daily Observations layout. Learn more.

Left ArrowRight Arrow

39.92423, -83.80882

Hourly Observations for December 31, 2020

Temp ( °F °C ) Dew Point ( °F °C ) Humidity (%) Winds ( mph kmh ) Pressure ( in mb ) Visibility ( mi km ) Precip ( " mm )
12:04 am 00:04 Cloudy with Light Snow 30 -1 30 -1 100 100 W 10 17 30.11 1020 3 5 0.00 0.00
12:56 am 00:56 Cloudy 31 -0.6 31 -0.6 100 100 W 9 15 30.11 1020 9 14 0.02 0.51
1:56 am 01:56 Cloudy 31 -0.6 31 -0.6 100 100 WNW 8 13 30.09 1019 10 16 0.02 0.51
2:04 am 02:04 Cloudy 30 -1 30 -1 100 100 WNW 13 20 30.15 1021 9 14 0.00 0.00
2:56 am 02:56 Cloudy 30 -1.1 29 -1.7 96 96 WNW 9 15 30.13 1020 9 14 0.01 0.25
3:56 am 03:56 Cloudy 30 -1.1 29 -1.7 96 96 WNW 6 9 30.13 1020 8 13 0.00 0.00
4:56 am 04:56 Cloudy 29 -1.7 27 -2.8 92 92 WNW 13 20 30.16 1021 10 16 0.00 0.00
5:56 am 05:56 Cloudy 29 -1.7 28 -2.2 96 96 NW 7 11 30.18 1022 10 16 0.00 0.00
6:28 am 06:28 Cloudy 27 -3 27 -3 100 100 NNW 13 20 30.24 1024 8 13 0.00 0.00
6:45 am 06:45 Cloudy 27 -3 25 -4 93 93 NW 12 19 30.26 1025 8 13 0.00 0.00
6:56 am 06:56 Cloudy 26 -3.3 25 -3.9 96 96 NW 12 19 30.24 1024 8 13 0.00 0.00
7:56 am 07:56 Cloudy 26 -3.3 24 -4.4 92 92 NW 7 11 30.26 1025 8 13 0.00 0.00
8:46 am 08:46 Cloudy 27 -3 25 -4 93 93 NNW 5 7 30.30 1026 7 11 0.00 0.00
8:56 am 08:56 Mostly Cloudy 25 -3.9 24 -4.4 96 96 NNW 3 6 30.27 1025 7 11 0.00 0.00
9:39 am 09:39 Partly Cloudy 27 -3 25 -4 93 93 NNW 3 6 30.32 1027 7 11 0.00 0.00
9:56 am 09:56 Sunny 26 -3.3 25 -3.9 96 96 NNW 6 9 30.30 1026 7 11 0.00 0.00
10:56 am 10:56 Sunny 27 -2.8 25 -3.9 92 92 Calm 30.32 1027 7 11 0.00 0.00
11:37 am 11:37 Mostly Cloudy 28 -2 27 -3 93 93 Calm 30.34 1028 7 11 0.00 0.00
11:56 am 11:56 Partly Cloudy 29 -1.7 25 -3.9 85 85 NNE 5 7 30.31 1027 9 14 0.00 0.00
12:51 pm 12:51 Mostly Cloudy 30 -1 27 -3 86 86 NNE 3 6 30.33 1027 9 14 0.00 0.00
12:56 pm 12:56 Mostly Cloudy 30 -1.1 26 -3.3 85 85 NNE 5 7 30.31 1026 10 16 0.00 0.00
1:56 pm 13:56 Mostly Cloudy 31 -0.6 26 -3.3 82 82 NE 6 9 30.29 1026 10 16 0.01 0.25
2:56 pm 14:56 Mostly Cloudy 31 -0.6 27 -2.8 85 85 ENE 6 9 30.30 1026 10 16 0.00 0.00
3:13 pm 15:13 Partly Cloudy 30 -1 27 -3 86 86 ENE 5 7 30.32 1027 10 16 0.00 0.00
3:42 pm 15:42 Mostly Cloudy 30 -1 27 -3 86 86 ENE 7 11 30.32 1027 10 16 0.01 0.25
3:56 pm 15:56 Mostly Cloudy 31 -0.6 27 -2.8 85 85 E 5 7 30.31 1026 10 16 0.01 0.25
4:56 pm 16:56 Partly Cloudy 30 -1.1 27 -2.8 88 88 ENE 6 9 30.32 1027 10 16 0.00 0.00
5:21 pm 17:21 Mostly Cloudy 30 -1 27 -3 86 86 ENE 6 9 30.35 1028 10 16 0.00 0.00
5:56 pm 17:56 Cloudy 29 -1.7 27 -2.8 92 92 NE 7 11 30.35 1028 10 16 0.01 0.25
6:56 pm 18:56 Cloudy 29 -1.7 27 -2.8 92 92 ENE 9 15 30.36 1028 10 16 0.00 0.00
7:56 pm 19:56 Cloudy 29 -1.7 27 -2.8 92 92 E 9 15 30.37 1029 10 16 0.00 0.00
8:56 pm 20:56 Cloudy 28 -2.2 26 -3.3 92 92 E 8 13 30.37 1028 9 14 0.00 0.00
9:56 pm 21:56 Partly Cloudy 25 -3.9 24 -4.4 96 96 ENE 7 11 30.36 1028 7 11 0.00 0.00
10:56 pm 22:56 Clear 25 -3.9 25 -3.9 100 100 E 7 11 30.37 1028 7 11 0.00 0.00
11:40 pm 23:40 Mostly Cloudy 27 -3 25 -4 93 93 E 7 11 30.38 1029 7 11 0.00 0.00
11:56 pm 23:56 Cloudy 27 -2.8 27 -2.8 100 100 E 10 17 30.35 1028 7 11 0.00 0.00

Powered by AerisWeather